Starlink 34808

operational
NORAD ID: 65745 Int'l Des: 2025-216 Owner: SPXS Country: US Constellation: starlink
NOTLE

Über Starlink 34808

Beschreibung wird geladen...

Live-Position

3D-Globus wird geladen...

Nächste Überflüge

Höhenverlauf

Altitude vs Time

uPlot chart will show altitude changes over time

Zweizeiliger Elementsatz

1 65745U 25216M 25340.90545851 .00044907 00000-0 15174-2 0 9998
2 65745 53.1619 43.4554 0000232 323.2186 36.8799 15.30239126 12312
Epoch: 6. Dez. 2025 • Age: 19 hours

Aktueller Status

Höhe 480.7 km
Geschwindigkeit 7.63 km/s
Subsatellitenpunkt 49.81°N, 132.11°E
Startdatum 25. Sept. 2025
Alter 0.1 years
Typ internet

Technische Details

Klassifizierung Payload
Masse 575.00 kg
Trockenmasse 530.00 kg
Gesamtmasse 575.00 kg
Länge 0.30 m
Durchmesser 4.10 m
Spannweite 29.00 m
Form Box + pan
Hersteller SPXS
Bus-Typ Starlink V2MO
Phasenstatus In Orbit
Besitzer/Staat SPXS/US

Große Konstellationen

Loading constellations...